Date,TemperatureHighF,TemperatureAvgF,TemperatureLowF,DewpointHighF,DewpointAvgF,DewpointLowF,HumidityHigh,HumidityAvg,HumidityLow,PressureMaxIn,PressureMinIn,WindSpeedMaxMPH,WindSpeedAvgMPH,GustSpeedMaxMPH,PrecipitationSumIn
2013-1-1,29.0,20.9,14.0,-99.9,-99.9,-99.9,0,0,100,0.00,40.00,5,3,7,0.00
2013-1-2,26.0,19.8,16.0,-99.9,-99.9,-99.9,0,0,100,0.00,40.00,6,3,7,0.00
2013-1-3,37.0,22.7,16.0,-99.9,-99.9,-99.9,0,0,100,0.00,40.00,5,3,8,0.00
2013-1-4,27.0,22.5,16.0,-99.9,-99.9,-99.9,0,0,100,0.00,40.00,5,3,8,0.00
2013-1-5,33.0,24.1,22.0,-99.9,-99.9,-99.9,0,0,100,0.00,40.00,3,2,7,0.00
2013-1-6,25.0,21.9,20.0,-99.9,-99.9,-99.9,0,0,100,0.00,40.00,6,3,8,0.00
2013-1-7,23.0,19.4,14.0,-99.9,-99.9,-99.9,0,0,100,0.00,40.00,8,6,12,0.00
2013-1-8,29.0,25.2,23.0,-99.9,-99.9,-99.9,0,0,100,0.00,40.00,8,5,11,0.00
2013-1-9,33.0,29.9,27.0,-99.9,-99.9,-99.9,0,0,100,0.00,40.00,7,4,13,0.00
2013-1-10,24.0,16.0,11.0,-99.9,-99.9,-99.9,0,0,100,0.00,40.00,6,4,11,0.00
2013-1-11,12.0,7.6,2.0,-99.9,-99.9,-99.9,0,0,100,0.00,40.00,6,3,9,0.00
2013-1-12,19.0,4.1,1.0,-99.9,-99.9,-99.9,0,0,100,0.00,40.00,6,3,9,0.00
2013-1-13,7.0,2.0,-1.0,-99.9,-99.9,-99.9,0,0,100,0.00,40.00,4,2,6,0.00
2013-1-14,9.0,5.1,1.0,-99.9,-99.9,-99.9,0,0,100,0.00,40.00,4,2,6,0.00
2013-1-17,34.0,28.1,23.0,-99.9,-99.9,-99.9,0,0,100,0.00,40.00,5,3,9,0.00
2013-1-18,28.0,26.0,22.0,-99.9,-99.9,-99.9,0,0,100,0.00,40.00,6,5,8,0.00
2013-1-19,31.0,27.3,20.0,-99.9,-99.9,-99.9,0,0,100,0.00,40.00,5,4,7,0.00
2013-1-20,40.0,33.8,28.0,-99.9,-99.9,-99.9,0,0,100,0.00,40.00,3,2,5,0.00
2013-1-21,38.0,32.3,28.0,-99.9,-99.9,-99.9,0,0,100,0.00,40.00,6,4,7,0.00
2013-1-22,47.0,33.1,29.0,-99.9,-99.9,-99.9,0,0,100,0.00,40.00,6,3,8,0.00
2013-1-23,38.0,32.5,28.0,-99.9,-99.9,-99.9,0,0,100,0.00,40.00,7,5,13,0.00
2013-1-24,29.0,27.2,26.0,-99.9,-99.9,-99.9,0,0,100,0.00,40.00,8,6,12,0.00
2013-1-25,32.0,30.5,29.0,-99.9,-99.9,-99.9,0,0,100,0.00,40.00,7,4,10,0.00
2013-1-26,31.0,28.0,22.0,-99.9,-99.9,-99.9,0,0,100,0.00,40.00,10,5,17,0.00
2013-1-27,21.0,17.0,13.0,-99.9,-99.9,-99.9,0,0,100,0.00,40.00,0,0,0,0.00
2013-1-28,18.0,15.7,13.0,-99.9,-99.9,-99.9,0,0,100,0.00,40.00,0,0,0,0.00
2013-1-29,25.0,21.1,17.0,-99.9,-99.9,-99.9,0,0,100,0.00,40.00,0,0,0,0.00
2013-1-30,28.0,24.4,22.0,-99.9,-99.9,-99.9,0,0,100,0.00,40.00,0,0,0,0.00
2013-1-31,31.0,28.0,25.0,-99.9,-99.9,-99.9,0,0,100,0.00,40.00,6,3,8,0.00
2013-2-1,33.0,27.9,23.0,-99.9,-99.9,-99.9,0,0,100,0.00,40.00,8,3,10,0.00
2013-2-2,44.0,31.0,24.0,-99.9,-99.9,-99.9,0,0,100,0.00,40.00,4,2,8,0.00
2013-2-3,34.0,26.6,20.0,-99.9,-99.9,-99.9,0,0,100,0.00,40.00,8,5,11,0.00
2013-2-4,37.0,29.8,26.0,-99.9,-99.9,-99.9,0,0,100,0.00,40.00,7,5,9,0.00
2013-2-5,35.0,29.9,25.0,-99.9,-99.9,-99.9,0,0,100,0.00,40.00,7,3,9,0.00
2013-2-6,28.0,23.7,22.0,-99.9,-99.9,-99.9,0,0,100,0.00,40.00,0,0,0,0.00
2013-2-7,29.0,25.3,21.0,-99.9,-99.9,-99.9,0,0,100,0.00,40.00,0,0,0,0.00
2013-2-8,26.0,20.0,17.0,-99.9,-99.9,-99.9,0,0,100,0.00,40.00,0,0,0,0.00
2013-2-9,26.0,18.5,14.0,-99.9,-99.9,-99.9,0,0,100,0.00,40.00,0,0,0,0.00
2013-2-10,24.0,17.5,15.0,-99.9,-99.9,-99.9,0,0,100,0.00,40.00,0,0,0,0.00
2013-2-11,27.0,18.9,13.0,-99.9,-99.9,-99.9,0,0,100,0.00,40.00,0,0,0,0.00
2013-2-12,28.0,23.1,21.0,-99.9,-99.9,-99.9,0,0,100,0.00,40.00,0,0,0,0.00
2013-2-13,28.0,25.3,24.0,-99.9,-99.9,-99.9,0,0,100,0.00,40.00,0,0,0,0.00
2013-2-14,32.0,27.4,23.0,-99.9,-99.9,-99.9,0,0,100,0.00,40.00,0,0,0,0.00
2013-2-15,40.0,28.4,21.0,-99.9,-99.9,-99.9,0,0,100,0.00,40.00,0,0,0,0.00
2013-2-16,39.0,33.3,28.0,-99.9,-99.9,-99.9,0,0,100,0.00,40.00,0,0,0,0.00
2013-2-17,25.0,21.0,16.0,-99.9,-99.9,-99.9,0,0,100,0.00,40.00,0,0,0,0.00
2013-2-18,29.0,21.5,15.0,-99.9,-99.9,-99.9,0,0,100,0.00,40.00,0,0,0,0.00
2013-2-19,24.0,21.6,18.0,-99.9,-99.9,-99.9,0,0,100,0.00,40.00,0,0,0,0.00
2013-2-20,25.0,19.5,14.0,-99.9,-99.9,-99.9,0,0,100,0.00,40.00,0,0,0,0.00
2013-2-21,21.0,17.4,11.0,-99.9,-99.9,-99.9,0,0,100,0.00,40.00,0,0,0,0.00
2013-2-22,24.0,20.1,18.0,-99.9,-99.9,-99.9,0,0,100,0.00,40.00,0,0,0,0.00
2013-2-23,24.0,18.2,13.0,-99.9,-99.9,-99.9,0,0,100,0.00,40.00,0,0,0,0.00
2013-2-24,26.0,17.5,13.0,-99.9,-99.9,-99.9,0,0,100,0.00,40.00,0,0,0,0.00
2013-2-25,19.0,18.3,17.0,-99.9,-99.9,-99.9,0,0,100,0.00,40.00,0,0,0,0.00
2013-2-26,24.0,16.8,12.0,-99.9,-99.9,-99.9,0,0,100,0.00,40.00,0,0,0,0.00
2013-2-27,28.0,21.4,16.0,-99.9,-99.9,-99.9,0,0,100,0.00,40.00,0,0,0,0.00
2013-2-28,30.0,25.8,21.0,-99.9,-99.9,-99.9,0,0,100,0.00,40.00,0,0,0,0.00
2013-3-1,35.0,32.3,31.0,-99.9,-99.9,-99.9,0,0,100,0.00,40.00,0,0,0,0.00
2013-3-2,45.0,38.2,32.0,-99.9,-99.9,-99.9,0,0,100,0.00,40.00,0,0,0,0.00
2013-3-3,32.0,25.5,19.0,-99.9,-99.9,-99.9,0,0,100,0.00,40.00,0,0,0,0.00
2013-3-4,26.0,18.3,11.0,-99.9,-99.9,-99.9,0,0,100,0.00,40.00,0,0,0,0.00
2013-3-5,39.0,27.4,19.0,-99.9,-99.9,-99.9,0,0,100,0.00,40.00,0,0,0,0.00
2013-3-6,33.0,29.5,26.0,-99.9,-99.9,-99.9,0,0,100,0.00,40.00,0,0,0,0.00
2013-3-7,29.0,23.6,17.0,-99.9,-99.9,-99.9,0,0,100,0.00,40.00,0,0,0,0.00
2013-3-8,35.0,26.7,22.0,-99.9,-99.9,-99.9,0,0,100,0.00,40.00,0,0,0,0.00
2013-3-9,34.0,24.7,18.0,-99.9,-99.9,-99.9,0,0,100,0.00,40.00,0,0,0,0.00
2013-3-10,24.0,23.6,23.0,-99.9,-99.9,-99.9,0,0,100,0.00,40.00,0,0,0,0.00
2013-3-11,35.0,31.1,29.0,-99.9,-99.9,-99.9,0,0,100,0.00,40.00,0,0,0,0.00
2013-3-12,40.0,32.6,28.0,-99.9,-99.9,-99.9,0,0,100,0.00,40.00,0,0,0,0.00
2013-3-13,47.0,43.3,38.0,-99.9,-99.9,-99.9,0,0,100,0.00,40.00,0,0,0,0.00
2013-3-14,51.0,46.8,42.0,-99.9,-99.9,-99.9,0,0,100,0.00,40.00,0,0,0,0.00
2013-3-15,43.0,39.4,34.0,-99.9,-99.9,-99.9,0,0,100,0.00,40.00,0,0,0,0.00
2013-3-16,37.0,31.6,28.0,-99.9,-99.9,-99.9,0,0,100,0.00,40.00,0,0,0,0.00
2013-3-17,27.0,19.6,15.0,-99.9,-99.9,-99.9,0,0,100,0.00,40.00,0,0,0,0.00
2013-3-18,26.0,18.8,15.0,-99.9,-99.9,-99.9,0,0,100,0.00,40.00,0,0,0,0.00
2013-3-19,38.0,29.2,20.0,-99.9,-99.9,-99.9,0,0,100,0.00,40.00,0,0,0,0.00
2013-3-20,36.0,30.9,27.0,-99.9,-99.9,-99.9,0,0,100,0.00,40.00,0,0,0,0.00
2013-3-21,21.0,17.5,14.0,-99.9,-99.9,-99.9,0,0,100,0.00,40.00,0,0,0,0.00
2013-3-22,24.0,16.2,12.0,-99.9,-99.9,-99.9,0,0,100,0.00,40.00,0,0,0,0.00
2013-3-23,21.0,16.0,10.0,-99.9,-99.9,-99.9,0,0,100,0.00,40.00,0,0,0,0.00
2013-3-24,29.0,17.6,12.0,-99.9,-99.9,-99.9,0,0,100,0.00,40.00,0,0,0,0.00
2013-3-25,34.0,25.0,19.0,-99.9,-99.9,-99.9,0,0,100,0.00,40.00,0,0,0,0.00
2013-3-26,40.0,32.4,28.0,-99.9,-99.9,-99.9,0,0,100,0.00,40.00,0,0,0,0.00
2013-3-27,41.0,35.8,29.0,-99.9,-99.9,-99.9,0,0,100,0.00,40.00,0,0,0,0.00
2013-3-28,45.0,42.1,37.0,-99.9,-99.9,-99.9,0,0,100,0.00,40.00,0,0,0,0.00
2013-3-29,43.0,38.7,34.0,-99.9,-99.9,-99.9,0,0,100,0.00,40.00,0,0,0,0.00
2013-3-30,51.0,39.5,34.0,-99.9,-99.9,-99.9,0,0,100,0.00,40.00,0,0,0,0.00
2013-3-31,54.0,48.7,38.0,-99.9,-99.9,-99.9,0,0,100,0.00,40.00,0,0,0,0.00
2013-4-1,50.0,46.6,38.0,-99.9,-99.9,-99.9,0,0,100,0.00,40.00,0,0,0,0.00
2013-4-2,49.0,44.5,38.0,-99.9,-99.9,-99.9,0,0,100,0.00,40.00,0,0,0,0.00
2013-4-3,48.0,43.7,38.0,-99.9,-99.9,-99.9,0,0,100,0.00,40.00,0,0,0,0.00
2013-4-4,50.0,42.8,39.0,-99.9,-99.9,-99.9,0,0,100,0.00,40.00,0,0,0,0.00
2013-4-5,37.0,34.5,31.0,-99.9,-99.9,-99.9,0,0,100,0.00,40.00,0,0,0,0.00
2013-4-6,36.0,33.5,32.0,-99.9,-99.9,-99.9,0,0,100,0.00,40.00,0,0,0,0.00
2013-4-7,32.0,29.6,26.0,-99.9,-99.9,-99.9,0,0,100,0.00,40.00,0,0,0,0.00
2013-4-8,29.0,23.4,21.0,-99.9,-99.9,-99.9,0,0,100,0.00,40.00,0,0,0,0.00
2013-4-9,37.0,28.5,20.0,-99.9,-99.9,-99.9,0,0,100,0.00,40.00,0,0,0,0.00
2013-4-10,40.0,34.3,27.0,-99.9,-99.9,-99.9,0,0,100,0.00,40.00,0,0,0,0.00
2013-4-11,39.0,33.1,25.0,-99.9,-99.9,-99.9,0,0,100,0.00,40.00,0,0,0,0.00
2013-4-12,40.0,32.4,24.0,-99.9,-99.9,-99.9,0,0,100,0.00,40.00,0,0,0,0.00
2013-4-13,38.0,28.4,21.0,-99.9,-99.9,-99.9,0,0,100,0.00,40.00,0,0,0,0.00
2013-4-14,28.0,22.1,16.0,-99.9,-99.9,-99.9,0,0,100,0.00,40.00,0,0,0,0.00
2013-4-15,27.0,23.0,18.0,-99.9,-99.9,-99.9,0,0,100,0.00,40.00,0,0,0,0.00
2013-4-16,31.0,24.1,19.0,-99.9,-99.9,-99.9,0,0,100,0.00,40.00,0,0,0,0.00
2013-4-17,32.0,20.7,15.0,-99.9,-99.9,-99.9,0,0,100,0.00,40.00,0,0,0,0.00
2013-4-18,37.0,28.4,19.0,-99.9,-99.9,-99.9,0,0,100,0.00,40.00,0,0,0,0.00
2013-4-19,33.0,31.2,29.0,-99.9,-99.9,-99.9,0,0,100,0.00,40.00,0,0,0,0.00
2013-4-20,37.0,33.6,31.0,-99.9,-99.9,-99.9,0,0,100,0.00,40.00,0,0,0,0.00
2013-4-21,37.0,34.0,31.0,-99.9,-99.9,-99.9,0,0,100,0.00,40.00,0,0,0,0.00
2013-4-22,33.0,28.4,25.0,-99.9,-99.9,-99.9,0,0,100,0.00,40.00,0,0,0,0.00
2013-4-23,36.0,27.9,19.0,-99.9,-99.9,-99.9,0,0,100,0.00,40.00,0,0,0,0.00
2013-4-24,44.0,35.5,24.0,-99.9,-99.9,-99.9,0,0,100,0.00,40.00,0,0,0,0.00
2013-4-25,49.0,40.5,35.0,-99.9,-99.9,-99.9,0,0,100,0.00,40.00,0,0,0,0.00
2013-4-26,54.0,44.4,37.0,-99.9,-99.9,-99.9,0,0,100,0.00,40.00,0,0,0,0.00
2013-4-27,54.0,49.1,44.0,-99.9,-99.9,-99.9,0,0,100,0.00,40.00,0,0,0,0.00
2013-4-28,44.0,41.2,37.0,-99.9,-99.9,-99.9,0,0,100,0.00,40.00,0,0,0,0.00
2013-4-29,40.0,37.0,33.0,-99.9,-99.9,-99.9,0,0,100,0.00,40.00,0,0,0,0.00
2013-4-30,28.0,25.3,21.0,-99.9,-99.9,-99.9,0,0,100,0.00,40.00,0,0,0,0.00
2013-5-1,39.0,28.7,17.0,-99.9,-99.9,-99.9,0,0,100,0.00,40.00,0,0,0,0.00
2013-5-2,48.0,40.2,30.0,-99.9,-99.9,-99.9,0,0,100,0.00,40.00,0,0,0,0.00
2013-5-3,52.0,44.4,38.0,-99.9,-99.9,-99.9,0,0,100,0.00,40.00,0,0,0,0.00
2013-5-4,48.0,40.5,35.0,-99.9,-99.9,-99.9,0,0,100,0.00,40.00,0,0,0,0.00
2013-5-5,56.0,44.8,37.0,-99.9,-99.9,-99.9,0,0,100,0.00,40.00,0,0,0,0.00
2013-5-6,61.0,53.2,44.0,-99.9,-99.9,-99.9,0,0,100,0.00,40.00,0,0,0,0.00
2013-5-7,60.0,50.2,45.0,-99.9,-99.9,-99.9,0,0,100,0.00,40.00,0,0,0,0.00
2013-5-8,60.0,52.7,44.0,-99.9,-99.9,-99.9,0,0,100,0.00,40.00,0,0,0,0.00
2013-5-9,64.0,55.8,48.0,-99.9,-99.9,-99.9,0,0,100,0.00,40.00,0,0,0,0.00
2013-5-10,66.0,58.6,49.0,-99.9,-99.9,-99.9,0,0,100,0.00,40.00,0,0,0,0.00
2013-5-11,67.0,60.5,55.0,-99.9,-99.9,-99.9,0,0,100,0.00,40.00,0,0,0,0.00
2013-5-12,69.0,65.0,59.0,-99.9,-99.9,-99.9,0,0,100,0.00,40.00,0,0,0,0.00
2013-5-13,66.0,61.4,56.0,-99.9,-99.9,-99.9,0,0,100,0.00,40.00,0,0,0,0.00
2013-5-14,52.0,47.6,41.0,-99.9,-99.9,-99.9,0,0,100,0.00,40.00,0,0,0,0.00
2013-5-15,57.0,50.3,44.0,-99.9,-99.9,-99.9,0,0,100,0.00,40.00,0,0,0,0.00
2013-5-16,49.0,39.2,43.0,-99.9,-99.9,-99.9,0,0,100,0.00,40.00,0,0,0,0.00
2013-5-17,40.0,37.6,36.0,-99.9,-99.9,-99.9,0,0,100,0.00,40.00,0,0,0,0.00
2013-5-18,45.0,40.3,36.0,-99.9,-99.9,-99.9,0,0,100,0.00,40.00,0,0,0,0.00
2013-5-19,47.0,40.5,34.0,-99.9,-99.9,-99.9,0,0,100,0.00,40.00,0,0,0,0.00
2013-5-20,56.0,42.9,35.0,-99.9,-99.9,-99.9,0,0,100,0.00,40.00,0,0,0,0.00
2013-5-21,57.0,51.3,45.0,-99.9,-99.9,-99.9,0,0,100,0.00,40.00,0,0,0,0.00
2013-5-22,35.0,28.9,23.0,-99.9,-99.9,-99.9,0,0,100,0.00,40.00,0,0,0,0.00
2013-5-23,44.0,35.1,27.0,-99.9,-99.9,-99.9,0,0,100,0.00,40.00,0,0,0,0.00
2013-5-24,44.0,37.2,32.0,-99.9,-99.9,-99.9,0,0,100,0.00,40.00,0,0,0,0.00
2013-5-25,50.0,43.6,37.0,-99.9,-99.9,-99.9,0,0,100,0.00,40.00,0,0,0,0.00
2013-5-26,46.0,43.1,42.0,-99.9,-99.9,-99.9,0,0,100,0.00,40.00,0,0,0,0.00
2013-5-27,45.0,40.1,37.0,-99.9,-99.9,-99.9,0,0,100,0.00,40.00,0,0,0,0.00
2013-5-28,42.0,38.5,36.0,-99.9,-99.9,-99.9,0,0,100,0.00,40.00,0,0,0,0.00
2013-5-29,42.0,37.2,36.0,-99.9,-99.9,-99.9,0,0,100,0.00,40.00,0,0,0,0.00
2013-5-30,44.0,37.5,32.0,-99.9,-99.9,-99.9,0,0,100,0.00,40.00,0,0,0,0.00
2013-5-31,51.0,42.8,31.0,-99.9,-99.9,-99.9,0,0,100,0.00,40.00,0,0,0,0.00
2013-6-1,58.0,50.9,42.0,-99.9,-99.9,-99.9,0,0,100,0.00,40.00,0,0,0,0.00
2013-6-2,54.0,50.1,41.0,-99.9,-99.9,-99.9,0,0,100,0.00,40.00,0,0,0,0.00
2013-6-3,55.0,49.3,37.0,-99.9,-99.9,-99.9,0,0,100,0.00,40.00,0,0,0,0.00
2013-6-4,61.0,52.0,41.0,-99.9,-99.9,-99.9,0,0,100,0.00,40.00,0,0,0,0.00
2013-6-5,65.0,56.5,49.0,-99.9,-99.9,-99.9,0,0,100,0.00,40.00,0,0,0,0.00
2013-6-6,70.0,62.8,56.0,-99.9,-99.9,-99.9,0,0,100,0.00,40.00,0,0,0,0.00
2013-6-7,68.0,61.9,57.0,-99.9,-99.9,-99.9,0,0,100,0.00,40.00,0,0,0,0.00
2013-6-8,67.0,58.0,50.0,-99.9,-99.9,-99.9,0,0,100,0.00,40.00,0,0,0,0.00
2013-6-9,69.0,60.9,55.0,-99.9,-99.9,-99.9,0,0,100,0.00,40.00,0,0,0,0.00
2013-6-10,68.0,62.1,56.0,-99.9,-99.9,-99.9,0,0,100,0.00,40.00,0,0,0,0.00
2013-6-11,62.0,58.2,54.0,-99.9,-99.9,-99.9,0,0,100,0.00,40.00,0,0,0,0.00
2013-6-12,59.0,52.7,45.0,-99.9,-99.9,-99.9,0,0,100,0.00,40.00,0,0,0,0.00
2013-6-13,49.0,40.5,36.0,-99.9,-99.9,-99.9,0,0,100,0.00,40.00,0,0,0,0.00
2013-6-14,51.0,41.4,32.0,-99.9,-99.9,-99.9,0,0,100,0.00,40.00,0,0,0,0.00
2013-6-15,62.0,51.6,41.0,-99.9,-99.9,-99.9,0,0,100,0.00,40.00,0,0,0,0.00
2013-6-16,71.0,63.0,50.0,-99.9,-99.9,-99.9,0,0,100,0.00,40.00,0,0,0,0.00
2013-6-17,69.0,64.5,58.0,-99.9,-99.9,-99.9,0,0,100,0.00,40.00,0,0,0,0.00
2013-6-18,65.0,57.6,48.0,-99.9,-99.9,-99.9,0,0,100,0.00,40.00,0,0,0,0.00
2013-6-19,43.0,38.3,33.0,-99.9,-99.9,-99.9,0,0,100,0.00,40.00,0,0,0,0.00
2013-6-20,36.0,32.0,29.0,-99.9,-99.9,-99.9,0,0,100,0.00,40.00,0,0,0,0.00
2013-6-22,54.0,49.3,38.0,-99.9,-99.9,-99.9,0,0,100,0.00,40.00,0,0,0,0.00
2013-6-23,61.0,55.7,46.0,-99.9,-99.9,-99.9,0,0,100,0.00,40.00,0,0,0,0.00
2013-6-24,55.0,47.9,44.0,-99.9,-99.9,-99.9,0,0,100,0.00,40.00,0,0,0,0.00
2013-6-25,48.0,46.1,44.0,-99.9,-99.9,-99.9,0,0,100,0.00,40.00,0,0,0,0.00
2013-6-26,59.0,51.5,45.0,-99.9,-99.9,-99.9,0,0,100,0.00,40.00,0,0,0,0.00
2013-6-27,72.0,65.7,53.0,-99.9,-99.9,-99.9,0,0,100,0.00,40.00,0,0,0,0.00
2013-6-28,77.0,74.1,66.0,-99.9,-99.9,-99.9,0,0,100,0.00,40.00,0,0,0,0.00
2013-6-29,80.0,74.2,65.0,-99.9,-99.9,-99.9,0,0,100,0.00,40.00,0,0,0,0.00
2013-6-30,79.0,72.3,63.0,-99.9,-99.9,-99.9,0,0,100,0.00,40.00,0,0,0,0.00
2013-7-1,86.0,76.6,68.0,-99.9,-99.9,-99.9,0,0,100,0.00,40.00,0,0,0,0.00
2013-7-2,84.0,78.2,71.0,-99.9,-99.9,-99.9,0,0,100,0.00,40.00,0,0,0,0.00
2013-7-3,78.0,72.5,67.0,-99.9,-99.9,-99.9,0,0,100,0.00,40.00,0,0,0,0.00
2013-7-4,73.0,68.5,65.0,-99.9,-99.9,-99.9,0,0,100,0.00,40.00,0,0,0,0.00
2013-7-5,69.0,64.5,57.0,-99.9,-99.9,-99.9,0,0,100,0.00,40.00,0,0,0,0.00
2013-7-6,71.0,62.7,53.0,-99.9,-99.9,-99.9,0,0,100,0.00,40.00,0,0,0,0.00
2013-7-7,74.0,68.2,60.0,-99.9,-99.9,-99.9,0,0,100,0.00,40.00,0,0,0,0.00
2013-7-8,71.0,64.7,62.0,-99.9,-99.9,-99.9,0,0,100,0.00,40.00,0,0,0,0.00
2013-7-9,74.0,63.4,55.0,-99.9,-99.9,-99.9,0,0,100,0.00,40.00,0,0,0,0.00
2013-7-10,78.0,70.9,67.0,-99.9,-99.9,-99.9,0,0,100,0.00,40.00,0,0,0,0.00
2013-7-11,66.0,62.1,53.0,-99.9,-99.9,-99.9,0,0,100,0.00,40.00,0,0,0,0.00
2013-7-12,69.0,64.7,59.0,-99.9,-99.9,-99.9,0,0,100,0.00,40.00,0,0,0,0.00
2013-7-26,77.0,73.2,68.0,-99.9,-99.9,-99.9,0,0,100,0.00,40.00,0,0,0,0.00
2013-7-27,75.0,70.8,65.0,-99.9,-99.9,-99.9,0,0,100,0.00,40.00,0,0,0,0.00
2013-7-28,70.0,63.5,58.0,-99.9,-99.9,-99.9,0,0,100,0.00,40.00,0,0,0,0.00
2013-7-29,68.0,63.8,56.0,-99.9,-99.9,-99.9,0,0,100,0.00,40.00,0,0,0,0.00
2013-7-30,73.0,67.2,61.0,-99.9,-99.9,-99.9,0,0,100,0.00,40.00,0,0,0,0.00
2013-7-31,72.0,68.2,62.0,-99.9,-99.9,-99.9,0,0,100,0.00,40.00,0,0,0,0.00
2013-8-1,68.0,59.3,46.0,-99.9,-99.9,-99.9,0,0,100,0.00,40.00,0,0,0,0.00
2013-8-2,60.0,50.8,45.0,-99.9,-99.9,-99.9,0,0,100,0.00,40.00,0,0,0,0.00
2013-8-3,66.0,57.2,50.0,-99.9,-99.9,-99.9,0,0,100,0.00,40.00,0,0,0,0.00
2013-8-4,73.0,64.0,55.0,-99.9,-99.9,-99.9,0,0,100,0.00,40.00,0,0,0,0.00
2013-8-5,76.0,68.2,60.0,-99.9,-99.9,-99.9,0,0,100,0.00,40.00,0,0,0,0.00
2013-8-6,74.0,67.2,59.0,-99.9,-99.9,-99.9,0,0,100,0.00,40.00,0,0,0,0.00
2013-8-7,76.0,69.8,63.0,-99.9,-99.9,-99.9,0,0,100,0.00,40.00,0,0,0,0.00
2013-8-8,77.0,64.3,59.0,-99.9,-99.9,-99.9,0,0,100,0.00,40.00,0,0,0,0.00
2013-8-9,75.0,65.9,59.0,-99.9,-99.9,-99.9,0,0,100,0.00,40.00,0,0,0,0.00
2013-8-10,73.0,65.2,58.0,-99.9,-99.9,-99.9,0,0,100,0.00,40.00,0,0,0,0.00
2013-8-11,74.0,66.1,62.0,-99.9,-99.9,-99.9,0,0,100,0.00,40.00,0,0,0,0.00
2013-8-12,77.0,68.3,60.0,-99.9,-99.9,-99.9,0,0,100,0.00,40.00,0,0,0,0.00
2013-8-13,74.0,60.4,52.0,-99.9,-99.9,-99.9,0,0,100,0.00,40.00,0,0,0,0.00
2013-8-14,77.0,69.4,61.0,-99.9,-99.9,-99.9,0,0,100,0.00,40.00,0,0,0,0.00
2013-8-15,81.0,65.6,69.0,-99.9,-99.9,-99.9,0,0,100,0.00,40.00,0,0,0,0.00
2013-8-16,77.0,69.6,67.0,-99.9,-99.9,-99.9,0,0,100,0.00,40.00,0,0,0,0.00
2013-8-17,76.0,69.8,61.0,-99.9,-99.9,-99.9,0,0,100,0.00,40.00,0,0,0,0.00
2013-8-18,76.0,68.5,60.0,-99.9,-99.9,-99.9,0,0,100,0.00,40.00,0,0,0,0.00
2013-8-19,78.0,71.8,62.0,-99.9,-99.9,-99.9,0,0,100,0.00,40.00,0,0,0,0.00
2013-8-20,76.0,68.6,64.0,-99.9,-99.9,-99.9,0,0,100,0.00,40.00,0,0,0,0.00
2013-8-21,76.0,72.0,59.0,-99.9,-99.9,-99.9,0,0,100,0.00,40.00,0,0,0,0.00
2013-8-22,72.0,66.7,57.0,-99.9,-99.9,-99.9,0,0,100,0.00,40.00,0,0,0,0.00
2013-8-23,68.0,60.8,52.0,-99.9,-99.9,-99.9,0,0,100,0.00,40.00,0,0,0,0.00
2013-8-24,72.0,64.6,56.0,-99.9,-99.9,-99.9,0,0,100,0.00,40.00,0,0,0,0.00
2013-8-25,71.0,63.3,56.0,-99.9,-99.9,-99.9,0,0,100,0.00,40.00,0,0,0,0.00
2013-8-26,67.0,60.5,54.0,-99.9,-99.9,-99.9,0,0,100,0.00,40.00,0,0,0,0.00
2013-8-27,66.0,64.5,63.0,-99.9,-99.9,-99.9,0,0,100,0.00,40.00,0,0,0,0.00
2013-8-28,72.0,67.2,63.0,-99.9,-99.9,-99.9,0,0,100,0.00,40.00,0,0,0,0.00
2013-8-29,74.0,69.1,61.0,-99.9,-99.9,-99.9,0,0,100,0.00,40.00,0,0,0,0.00
2013-8-30,69.0,65.6,59.0,-99.9,-99.9,-99.9,0,0,100,0.00,40.00,0,0,0,0.00
2013-8-31,76.0,67.9,58.0,-99.9,-99.9,-99.9,0,0,100,0.00,40.00,0,0,0,0.00
2013-9-1,77.0,72.5,68.0,-99.9,-99.9,-99.9,0,0,100,0.00,40.00,0,0,0,0.00
2013-9-2,67.0,62.7,57.0,-99.9,-99.9,-99.9,0,0,100,0.00,40.00,0,0,0,0.00
2013-9-3,64.0,59.2,54.0,-99.9,-99.9,-99.9,0,0,100,0.00,40.00,0,0,0,0.00
2013-9-4,72.0,61.9,54.0,-99.9,-99.9,-99.9,0,0,100,0.00,40.00,0,0,0,0.00
2013-9-5,64.0,57.6,53.0,-99.9,-99.9,-99.9,0,0,100,0.00,40.00,0,0,0,0.00
2013-9-6,59.0,53.7,50.0,-99.9,-99.9,-99.9,0,0,100,0.00,40.00,0,0,0,0.00
2013-9-7,64.0,54.9,47.0,-99.9,-99.9,-99.9,0,0,100,0.00,40.00,0,0,0,0.00
2013-9-8,63.0,58.6,53.0,-99.9,-99.9,-99.9,0,0,100,0.00,40.00,0,0,0,0.00
2013-9-9,64.0,53.9,44.0,-99.9,-99.9,-99.9,0,0,100,0.00,40.00,0,0,0,0.00
2013-9-10,70.0,62.3,52.0,-99.9,-99.9,-99.9,0,0,100,0.00,40.00,0,0,0,0.00
2013-9-11,75.0,68.5,60.0,-99.9,-99.9,-99.9,0,0,100,0.00,40.00,0,0,0,0.00
2013-9-12,67.0,62.7,59.0,-99.9,-99.9,-99.9,0,0,100,0.00,40.00,0,0,0,0.00
2013-9-13,62.0,54.9,52.0,-99.9,-99.9,-99.9,0,0,100,0.00,40.00,0,0,0,0.00
2013-9-14,66.0,62.3,52.0,-99.9,-99.9,-99.9,0,0,100,0.00,40.00,0,0,0,0.00
2013-9-15,65.0,59.4,56.0,-99.9,-99.9,-99.9,0,0,100,0.00,40.00,0,0,0,0.00
2013-9-16,63.0,57.0,51.0,-99.9,-99.9,-99.9,0,0,100,0.00,40.00,0,0,0,0.00
2013-9-17,58.0,54.9,53.0,-99.9,-99.9,-99.9,0,0,100,0.00,40.00,0,0,0,0.00
2013-9-18,40.0,37.8,36.0,-99.9,-99.9,-99.9,0,0,100,0.00,40.00,0,0,0,0.00
2013-9-19,54.0,42.5,34.0,-99.9,-99.9,-99.9,0,0,100,0.00,40.00,0,0,0,0.00
2013-9-20,66.0,59.7,48.0,-99.9,-99.9,-99.9,0,0,100,0.00,40.00,0,0,0,0.00
2013-9-21,54.0,50.5,44.0,-99.9,-99.9,-99.9,0,0,100,0.00,40.00,0,0,0,0.00
2013-9-22,45.0,41.2,39.0,-99.9,-99.9,-99.9,0,0,100,0.00,40.00,0,0,0,0.00
2013-9-23,48.0,42.4,37.0,-99.9,-99.9,-99.9,0,0,100,0.00,40.00,0,0,0,0.00
2013-9-24,47.0,40.4,35.0,-99.9,-99.9,-99.9,0,0,100,0.00,40.00,0,0,0,0.00
2013-9-25,35.0,33.2,31.0,-99.9,-99.9,-99.9,0,0,100,0.00,40.00,0,0,0,0.00
2013-9-26,38.0,33.1,30.0,-99.9,-99.9,-99.9,0,0,100,0.00,40.00,0,0,0,0.00
2013-9-27,38.0,34.8,30.0,-99.9,-99.9,-99.9,0,0,100,0.00,40.00,0,0,0,0.00
2013-9-28,44.0,36.9,32.0,-99.9,-99.9,-99.9,0,0,100,0.00,40.00,0,0,0,0.00
2013-9-29,47.0,37.3,32.0,-99.9,-99.9,-99.9,0,0,100,0.00,40.00,0,0,0,0.00
2013-9-30,43.0,39.1,34.0,-99.9,-99.9,-99.9,0,0,100,0.00,40.00,0,0,1,0.00
2013-10-1,38.0,35.2,32.0,-99.9,-99.9,-99.9,0,0,100,0.00,40.00,0,0,0,0.00
2013-10-2,41.0,33.4,27.0,-99.9,-99.9,-99.9,0,0,100,0.00,40.00,0,0,0,0.00
2013-10-3,36.0,31.8,27.0,-99.9,-99.9,-99.9,0,0,100,0.00,40.00,0,0,0,0.00
2013-10-4,35.0,30.5,25.0,-99.9,-99.9,-99.9,0,0,100,0.00,40.00,0,0,0,0.00
2013-10-5,47.0,42.0,34.0,-99.9,-99.9,-99.9,0,0,100,0.00,40.00,0,0,0,0.00
2013-10-6,58.0,55.9,48.0,-99.9,-99.9,-99.9,0,0,100,0.00,40.00,0,0,0,0.00
2013-10-7,48.0,43.8,37.0,-99.9,-99.9,-99.9,0,0,100,0.00,40.00,0,0,0,0.00
2013-10-8,36.0,31.2,28.0,-99.9,-99.9,-99.9,0,0,100,0.00,40.00,0,0,0,0.00
2013-10-9,46.0,34.5,27.0,-99.9,-99.9,-99.9,0,0,100,0.00,40.00,0,0,0,0.00
2013-10-10,43.0,39.3,34.0,-99.9,-99.9,-99.9,0,0,100,0.00,40.00,0,0,0,0.00
2013-10-11,42.0,35.1,28.0,-99.9,-99.9,-99.9,0,0,100,0.00,40.00,0,0,0,0.00
2013-10-12,39.0,35.0,31.0,-99.9,-99.9,-99.9,0,0,100,0.00,40.00,0,0,0,0.00
2013-10-13,42.0,35.5,30.0,-99.9,-99.9,-99.9,0,0,100,0.00,40.00,0,0,0,0.00
2013-10-14,41.0,32.0,28.0,-99.9,-99.9,-99.9,0,0,100,0.00,40.00,0,0,0,0.00
2013-10-15,42.0,37.0,30.0,-99.9,-99.9,-99.9,0,0,100,0.00,40.00,0,0,0,0.00
2013-10-16,43.0,37.8,33.0,-99.9,-99.9,-99.9,0,0,100,0.00,40.00,0,0,0,0.00
2013-10-17,43.0,35.5,33.0,-99.9,-99.9,-99.9,0,0,100,0.00,40.00,0,0,0,0.00
2013-10-18,44.0,37.1,30.0,-99.9,-99.9,-99.9,0,0,100,0.00,40.00,0,0,0,0.00
2013-10-19,51.0,43.4,38.0,-99.9,-99.9,-99.9,0,0,100,0.00,40.00,0,0,0,0.00
2013-10-20,51.0,44.4,39.0,-99.9,-99.9,-99.9,0,0,100,0.00,40.00,0,0,0,0.00
2013-10-21,53.0,45.9,36.0,-99.9,-99.9,-99.9,0,0,100,0.00,40.00,0,0,0,0.00
2013-10-22,54.0,52.0,46.0,-99.9,-99.9,-99.9,0,0,100,0.00,40.00,0,0,0,0.00
2013-10-23,54.0,51.3,47.0,-99.9,-99.9,-99.9,0,0,100,0.00,40.00,0,0,0,0.00
2013-10-24,56.0,52.6,48.0,-99.9,-99.9,-99.9,0,0,100,0.00,40.00,0,0,0,0.00
2013-10-25,57.0,51.4,47.0,-99.9,-99.9,-99.9,0,0,100,0.00,40.00,0,0,0,0.00
2013-10-26,54.0,47.8,44.0,-99.9,-99.9,-99.9,0,0,100,0.00,40.00,0,0,0,0.00
2013-10-27,49.0,45.2,39.0,-99.9,-99.9,-99.9,0,0,100,0.00,40.00,0,0,0,0.00
2013-10-28,39.0,34.3,30.0,-99.9,-99.9,-99.9,0,0,100,0.00,40.00,0,0,0,0.00
2013-10-29,37.0,32.0,29.0,-99.9,-99.9,-99.9,0,0,100,0.00,40.00,0,0,0,0.00
2013-10-30,30.0,28.1,27.0,-99.9,-99.9,-99.9,0,0,100,0.00,40.00,0,0,0,0.00
2013-10-31,32.0,28.4,27.0,-99.9,-99.9,-99.9,0,0,100,0.00,40.00,0,0,0,0.00
2013-11-1,37.0,32.7,30.0,-99.9,-99.9,-99.9,0,0,100,0.00,40.00,0,0,0,0.00
2013-11-2,39.0,32.5,23.0,-99.9,-99.9,-99.9,0,0,100,0.00,40.00,0,0,0,0.00
2013-11-3,22.0,21.0,20.0,-99.9,-99.9,-99.9,0,0,100,0.00,40.00,0,0,0,0.00
2013-11-4,23.0,19.8,17.0,-99.9,-99.9,-99.9,0,0,100,0.00,40.00,0,0,0,0.00
2013-11-5,25.0,21.3,13.0,-99.9,-99.9,-99.9,0,0,100,0.00,40.00,0,0,0,0.00
2013-11-6,32.0,29.0,26.0,-99.9,-99.9,-99.9,0,0,100,0.00,40.00,0,0,0,0.00
2013-11-7,37.0,33.8,30.0,-99.9,-99.9,-99.9,0,0,100,0.00,40.00,0,0,0,0.00
2013-11-8,29.0,26.5,25.0,-99.9,-99.9,-99.9,0,0,100,0.00,40.00,0,0,0,0.00
2013-11-9,39.0,32.2,25.0,-99.9,-99.9,-99.9,0,0,100,0.00,40.00,0,0,0,0.00
2013-11-10,47.0,42.0,39.0,-99.9,-99.9,-99.9,0,0,100,0.00,40.00,0,0,0,0.00
2013-11-11,52.0,50.5,47.0,-99.9,-99.9,-99.9,0,0,100,0.00,40.00,0,0,0,0.00
2013-11-12,49.0,44.0,41.0,-99.9,-99.9,-99.9,0,0,100,0.00,40.00,0,0,0,0.00
2013-11-13,42.0,36.8,30.0,-99.9,-99.9,-99.9,0,0,100,0.00,40.00,0,0,0,0.00
2013-11-14,35.0,30.8,26.0,-99.9,-99.9,-99.9,0,0,100,0.00,40.00,0,0,0,0.00
2013-11-15,25.0,23.2,21.0,-99.9,-99.9,-99.9,0,0,100,0.00,40.00,0,0,0,0.00
2013-11-16,23.0,21.4,19.0,-99.9,-99.9,-99.9,0,0,100,0.00,40.00,0,0,0,0.00
2013-11-17,25.0,23.4,22.0,-99.9,-99.9,-99.9,0,0,100,0.00,40.00,0,0,0,0.00
2013-11-18,35.0,30.6,24.0,-99.9,-99.9,-99.9,0,0,100,0.00,40.00,0,0,0,0.00
2013-11-19,31.0,29.4,29.0,-99.9,-99.9,-99.9,0,0,100,0.00,40.00,0,0,0,0.00
2013-11-20,24.0,19.0,14.0,-99.9,-99.9,-99.9,0,0,100,0.00,40.00,0,0,0,0.00
2013-11-21,19.0,14.4,10.0,-99.9,-99.9,-99.9,0,0,100,0.00,40.00,0,0,0,0.00
2013-11-22,30.0,24.9,18.0,-99.9,-99.9,-99.9,0,0,100,0.00,40.00,0,0,0,0.00
2013-11-23,39.0,38.0,37.0,-99.9,-99.9,-99.9,0,0,100,0.00,40.00,0,0,0,0.00
2013-11-24,47.0,43.6,41.0,-99.9,-99.9,-99.9,0,0,100,0.00,40.00,0,0,0,0.00
2013-11-25,46.0,46.0,46.0,-99.9,-99.9,-99.9,0,0,100,0.00,40.00,0,0,0,0.00
2013-11-26,49.0,43.8,35.0,-99.9,-99.9,-99.9,0,0,100,0.00,40.00,0,0,0,0.00
2013-11-27,44.0,40.8,37.0,-99.9,-99.9,-99.9,0,0,100,0.00,40.00,0,0,0,0.00
2013-11-28,42.0,39.7,35.0,-99.9,-99.9,-99.9,0,0,100,0.00,40.00,0,0,0,0.00
2013-11-29,38.0,33.5,29.0,-99.9,-99.9,-99.9,0,0,100,0.00,40.00,0,0,0,0.00
2013-11-30,31.0,29.1,29.0,-99.9,-99.9,-99.9,0,0,100,0.00,40.00,0,0,0,0.00
2013-12-1,35.0,31.5,29.0,-99.9,-99.9,-99.9,0,0,100,0.00,40.00,0,0,0,0.00
2013-12-2,32.0,28.3,12.0,-99.9,-99.9,-99.9,0,0,100,0.00,40.00,0,0,2,0.00
2013-12-3,16.0,11.0,5.0,-99.9,-99.9,-99.9,0,0,100,0.00,40.00,0,0,0,0.00
2013-12-4,5.0,0.3,-4.0,-99.9,-99.9,-99.9,0,0,100,0.00,40.00,0,0,0,0.00
2013-12-5,4.0,-0.2,-3.0,-99.9,-99.9,-99.9,0,0,100,0.00,40.00,0,0,0,0.00
2013-12-6,5.0,1.5,-4.0,-99.9,-99.9,-99.9,0,0,100,0.00,40.00,0,0,0,0.00
2013-12-7,14.0,4.6,-3.0,-99.9,-99.9,-99.9,0,0,100,0.00,40.00,0,0,0,0.00
2013-12-8,6.0,-1.5,-5.0,-99.9,-99.9,-99.9,0,0,100,0.00,40.00,0,0,0,0.00
2013-12-9,7.0,4.9,2.0,-99.9,-99.9,-99.9,0,0,100,0.00,40.00,0,0,0,0.00
2013-12-10,17.0,10.1,6.0,-99.9,-99.9,-99.9,0,0,100,0.00,40.00,0,0,0,0.00
2013-12-11,19.0,14.8,11.0,-99.9,-99.9,-99.9,0,0,100,0.00,40.00,0,0,0,0.00
2013-12-12,20.0,19.1,18.0,-99.9,-99.9,-99.9,0,0,100,0.00,40.00,0,0,0,0.00
2013-12-13,31.0,23.5,18.0,-99.9,-99.9,-99.9,0,0,100,0.00,40.00,0,0,0,0.00
2013-12-14,28.0,26.4,24.0,-99.9,-99.9,-99.9,0,0,100,0.00,40.00,0,0,0,0.00
2013-12-15,31.0,26.3,24.0,-99.9,-99.9,-99.9,0,0,100,0.00,40.00,0,0,0,0.00
2013-12-16,34.0,28.2,26.0,-99.9,-99.9,-99.9,0,0,100,0.00,40.00,0,0,0,0.00
2013-12-17,40.0,36.7,32.0,-99.9,-99.9,-99.9,0,0,100,0.00,40.00,0,0,0,0.00
2013-12-18,31.0,27.6,23.0,-99.9,-99.9,-99.9,0,0,100,0.00,40.00,0,0,0,0.00
2013-12-19,21.0,16.4,12.0,-99.9,-99.9,-99.9,0,0,100,0.00,40.00,0,0,0,0.00
2013-12-20,15.0,12.0,10.0,-99.9,-99.9,-99.9,0,0,100,0.00,40.00,0,0,0,0.00
2013-12-21,25.0,21.4,15.0,-99.9,-99.9,-99.9,0,0,100,0.00,40.00,0,0,0,0.00
2013-12-22,28.0,24.9,24.0,-99.9,-99.9,-99.9,0,0,100,0.00,40.00,0,0,0,0.00
2013-12-23,29.0,28.4,27.0,-99.9,-99.9,-99.9,0,0,100,0.00,40.00,0,0,0,0.00
2013-12-24,29.0,19.7,16.0,-99.9,-99.9,-99.9,0,0,100,0.00,40.00,0,0,0,0.00
2013-12-25,31.0,22.1,16.0,-99.9,-99.9,-99.9,0,0,100,0.00,40.00,0,0,0,0.00
2013-12-26,33.0,28.8,25.0,-99.9,-99.9,-99.9,0,0,100,0.00,40.00,0,0,0,0.00
2013-12-27,38.0,31.5,27.0,-99.9,-99.9,-99.9,0,0,100,0.00,40.00,0,0,0,0.00
2013-12-28,29.0,25.4,19.0,-99.9,-99.9,-99.9,0,0,100,0.00,40.00,0,0,0,0.00
2013-12-29,27.0,22.4,18.0,-99.9,-99.9,-99.9,0,0,100,0.00,40.00,0,0,0,0.00
2013-12-30,28.0,26.2,24.0,-99.9,-99.9,-99.9,0,0,100,0.00,40.00,0,0,0,0.00
2013-12-31,28.0,25.9,24.0,-99.9,-99.9,-99.9,0,0,100,0.00,40.00,0,0,0,0.00
2014-1-1,30.0,25.4,22.0,-99.9,-99.9,-99.9,0,0,100,0.00,40.00,0,0,0,0.00
2014-1-2,34.0,28.3,25.0,-99.9,-99.9,-99.9,0,0,100,0.00,40.00,0,0,0,0.00